STARLINK-11258, 62598

Orbit data source: Space-Track

STARLINK-11258, 62598 is a payload satellite owned by SpaceX/Seattle (US) in LEO that was launched on Mon, 13 Jan 2025 UTC via an FALCON 9 launch vehicle from the Air Force Eastern Test Range (AFETR). Payload-class satellites include a variety of spacecraft equipped with specific instruments for various scientific and technological missions. These include communications satellites like Starlink; space stations such as the ISS; scientific satellites like the Hubble; Earth observation satellites from companies like Planet Labs, Umbra, and HawkEye 360; GPS; miniature CubeSats for education and research; and military/defense satellites.

Loading next visibility...
Identifier
62598, 2025-008M
Orbit
LEO
Last TLE update
8 hours ago
Origin
Manufacturer
SpaceX/Seattle
Mission
Operational Commercial Communications
Bus & Motor
STARLINK V2M, Unknown motor
Mass
730 kg wet, ~700 kg dry
Launch date (UTC)
2025-01-13 (6 months ago)
Launch vehicle
FALCON 9
Launch site
Air Force Eastern Test Range (AFETR)
Object type
Payload
Rocket body
Debris
Shape & HBR
Box + 2 Pan, 29 m
Radar Cross Section
36.964 m², Large (>1 m²)

Expand to show TLE details & history

TLE from 8 hours ago
0 STARLINK-11258
1 62598U 25008M   25182.08094413  .00239965  00000-0  18154-2 0  9997
2 62598  42.9995 202.6935 0001389 250.7976 109.2742 15.70901872 27716
Epoch: 2025-07-01T01:56Z
TLE epoch observation values (Epoch: 2025-07-01T01:56:33.572Z)
Latitude
0.00001°
Longitude
-105.8279°
Altitude
356.398 km
Speed
7.697 km/s
True Right ascension
13h 30m 46s
True Declination
0° 00' 00"
Sunlit
Object was in daylight at epoch
Visualization orbit readout
Latitude
5.39966°
Longitude
-101.96884°
Altitude
355.504 km
Speed
7.698 km/s
Apparent Right ascension
11h 54m 20s
Apparent Declination
-19° 34' 28"
Sunlit
Object is in daylight
Visualization observer readout
Local Sidereal Time
21:14:37
Azimuth
288.869° WNW
Elevation
-50.279°
Doppler factor
1
Orbital elements
Apogee altitude
359.236 km
Perigee altitude
357.364 km
Semi-major axis
6,736.437 km
Eccentricity
0.00014
Inclination
42.9995°
RAAN
202.6935°
Arg. of periapsis
250.7976°
True anomaly
Unknown
Mean anomaly
109.2742°
Eccentric anomaly
Unknown
Mean motion
3.92553 °/min
Orbital period
91.71 mins
BSTAR
0.0018154
Loading maneuver chart data...
Loading SW <> Apogee altitude chart data...
Loading historical data...
Loading historical data...
Loading historical data...
Loading historical data...
Loading historical data...
Loading historical data...
Loading historical data...

STARLINK-11258 Visibility forecast

Observer location: undefined°, undefined°

Span
Click to sort rows by Start time (UTC) header in descending order
Start Az.
Max El. time (UTC)
Max El. Az.
Max El.
End time (UTC)
End Az.
5 mins2025-07-01 10:01:19.179Z280.312° WNW2025-07-01 10:03:19.179Z242.793° WSW35.602°2025-07-01 10:06:19.179Z127.727° SE
4 mins2025-07-02 07:17:19.179Z302.412° NW2025-07-02 07:18:19.179Z339.919° N33.278°2025-07-02 07:21:19.179Z73.161° E
4 mins2025-07-02 08:53:19.179Z291.635° WNW2025-07-02 08:55:19.179Z91.251° ESE40.765°2025-07-02 08:57:19.179Z104.578° ESE
|